FW8228 Weather Reports


time (UTC)temp
C
wind
direction
speed
KPH
gust
KPH
rain 1hr
cm
rain 24hr
cm
rain mn
cm
humidity
%
barometer
mb
20260510173631 33 272 0.0 0.0 0.00 0.00 0.00 61 1017.0
20260510173127 33 201 0.0 1.6 0.00 0.00 0.00 59 1017.2
20260510172623 32 214 0.0 0.0 0.00 0.00 0.00 63 1017.1
20260510172120 31 327 0.0 0.0 0.00 0.00 0.00 63 1017.2
20260510171616 32 307 0.0 0.0 0.00 0.00 0.00 64 1017.5
20260510171114 31 236 0.0 0.0 0.00 0.00 0.00 64 1017.4
20260510170610 32 232 0.0 0.0 0.00 0.00 0.00 62 1017.5
20260510170107 33 292 0.0 0.0 0.00 0.00 0.00 62 1017.4
20260510165603 33 276 0.0 1.6 0.00 0.00 0.00 61 1017.6
20260510165058 33 201 0.0 1.6 0.00 0.00 0.00 61 1017.7
20260510164556 33 345 0.0 0.0 0.00 0.00 0.00 61 1017.4
20260510164052 33 150 0.0 0.0 0.00 0.00 0.00 60 1017.7
20260510163548 33 286 0.0 1.6 0.00 0.00 0.00 61 1017.7
20260510163044 33 302 0.0 0.0 0.00 0.00 0.00 61 1017.9
20260510162539 33 255 0.0 4.8 0.00 0.00 0.00 62 1018.0
20260510162036 32 217 0.0 1.6 0.00 0.00 0.00 64 1018.1
20260510161532 32 9 0.0 0.0 0.00 0.00 0.00 66 1018.1
20260510161029 31 211 0.0 3.2 0.00 0.00 0.00 67 1018.2
20260510160526 31 298 0.0 0.0 0.00 0.00 0.00 68 1018.5
20260510160025 31 265 0.0 0.0 0.00 0.00 0.00 70 1018.2
20260510155522 31 156 0.0 0.0 0.00 0.00 0.00 69 1018.2
20260510155018 31 272 0.0 0.0 0.00 0.00 0.00 69 1018.0
20260510154515 31 308 0.0 0.0 0.00 0.00 0.00 70 1018.2
20260510154015 31 213 1.6 4.8 0.00 0.00 0.00 71 1018.4
20260510153510 30 294 0.0 0.0 0.00 0.00 0.00 71 1018.3
20260510153007 30 195 0.0 0.0 0.00 0.00 0.00 72 1018.4
20260510152504 30 13 0.0 0.0 0.00 0.00 0.00 71 1018.3
20260510152000 31 225 0.0 0.0 0.00 0.00 0.00 71 1018.1
20260510151458 30 122 0.0 0.0 0.00 0.00 0.00 71 1018.4
20260510150954 30 305 0.0 0.0 0.00 0.00 0.00 71 1018.2
20260510150450 30 331 0.0 0.0 0.00 0.00 0.00 72 1018.2
20260510145946 30 220 0.0 0.0 0.00 0.00 0.00 73 1018.2
20260510145442 30 271 0.0 0.0 0.00 0.00 0.00 73 1018.1
20260510144939 30 313 0.0 0.0 0.00 0.00 0.00 73 1018.1
20260510144436 30 283 0.0 0.0 0.00 0.00 0.00 73 1018.1
20260510143931 30 94 0.0 0.0 0.00 0.00 0.00 72 1018.1
20260510143427 30 277 0.0 0.0 0.00 0.00 0.00 73 1018.0
20260510142924 29 229 0.0 0.0 0.00 0.00 0.00 74 1018.0
20260510142421 30 220 0.0 0.0 0.00 0.00 0.00 73 1018.1
20260510141917 30 208 0.0 1.6 0.00 0.00 0.00 73 1017.9
20260510141414 30 266 0.0 3.2 0.00 0.00 0.00 73 1018.1
20260510140911 30 201 0.0 0.0 0.00 0.00 0.00 73 1017.9
20260510140407 29 134 0.0 3.2 0.00 0.00 0.00 74 1017.9
20260510135901 28 282 0.0 0.0 0.00 0.00 0.00 75 1018.0
20260510135357 28 137 0.0 0.0 0.00 0.00 0.00 75 1018.1
20260510134855 28 221 0.0 0.0 0.00 0.00 0.00 76 1018.0
20260510134351 28 172 0.0 0.0 0.00 0.00 0.00 76 1017.8
20260510133847 28 188 0.0 0.0 0.00 0.00 0.00 77 1017.7
20260510133344 27 223 0.0 0.0 0.00 0.00 0.00 78 1017.8
20260510132839 27 179 0.0 0.0 0.00 0.00 0.00 79 1017.5
20260510132338 26 124 0.0 0.0 0.00 0.00 0.00 81 1017.5
20260510131834 26 222 0.0 0.0 0.00 0.00 0.00 82 1017.6
20260510131332 25 219 0.0 0.0 0.00 0.00 0.00 82 1017.8
20260510130828 25 98 0.0 0.0 0.00 0.00 0.00 84 1017.7
20260510130325 25 266 0.0 0.0 0.00 0.00 0.00 84 1017.5
20260510125821 25 356 0.0 0.0 0.00 0.00 0.00 86 1017.9
20260510125318 24 48 0.0 0.0 0.00 0.00 0.00 86 1017.7
20260510124815 24 226 0.0 0.0 0.00 0.00 0.00 87 1017.8
20260510124312 24 139 0.0 0.0 0.00 0.00 0.00 88 1017.7
20260510123807 23 10 0.0 0.0 0.00 0.00 0.00 89 1017.6
20260510123303 23 86 0.0 0.0 0.00 0.00 0.00 90 1017.5
20260510122759 23 44 0.0 0.0 0.00 0.00 0.00 90 1017.6
20260510122256 23 44 0.0 0.0 0.00 0.00 0.00 91 1017.6
20260510121752 23 290 0.0 0.0 0.00 0.00 0.00 91 1017.5
20260510121250 23 29 0.0 0.0 0.00 0.00 0.00 92 1017.5
20260510120747 23 268 0.0 0.0 0.00 0.00 0.00 92 1017.3
20260510120243 22 69 0.0 0.0 0.00 0.00 0.00 93 1017.3
20260510115739 22 72 0.0 0.0 0.00 0.00 0.00 93 1017.1
20260510115238 22 86 0.0 0.0 0.00 0.00 0.00 93 1017.1
20260510114732 22 62 0.0 0.0 0.00 0.00 0.00 93 1017.1
20260510114230 22 62 0.0 0.0 0.00 0.00 0.00 93 1017.0
20260510113725 22 62 0.0 0.0 0.00 0.00 0.00 93 1016.8
20260510113223 22 62 0.0 0.0 0.00 0.00 0.00 93 1016.6
20260510112718 22 62 0.0 0.0 0.00 0.00 0.00 93 1016.7
20260510112216 22 62 0.0 0.0 0.00 0.00 0.00 93 1016.5
20260510111711 22 62 0.0 0.0 0.00 0.00 0.00 93 1016.2
20260510111209 22 62 0.0 0.0 0.00 0.00 0.00 93 1016.1
20260510110709 22 72 0.0 0.0 0.00 0.00 0.00 93 1016.2
20260510110207 22 73 0.0 0.0 0.00 0.00 0.00 93 1016.0
20260510105706 21 70 0.0 0.0 0.00 0.00 0.00 93 1015.8
20260510105201 22 70 0.0 0.0 0.00 0.00 0.00 92 1016.0
20260510104658 21 70 0.0 0.0 0.00 0.00 0.00 92 1016.0
20260510104155 21 70 0.0 0.0 0.00 0.00 0.00 92 1015.8
20260510103652 21 70 0.0 0.0 0.00 0.00 0.00 92 1015.9
20260510103148 22 70 0.0 0.0 0.00 0.00 0.00 92 1015.9
20260510102648 22 70 0.0 0.0 0.00 0.00 0.00 92 1015.8
20260510102145 22 70 0.0 0.0 0.00 0.00 0.00 92 1015.6
20260510101642 21 70 0.0 0.0 0.00 0.00 0.00 92 1015.6
20260510101141 22 71 0.0 0.0 0.00 0.00 0.00 92 1015.4
20260510100636 22 72 0.0 0.0 0.00 0.00 0.00 92 1015.5
20260510100134 22 72 0.0 0.0 0.00 0.00 0.00 92 1015.2
20260510095629 22 83 0.0 0.0 0.00 0.00 0.00 92 1015.3
20260510095125 22 78 0.0 0.0 0.00 0.00 0.00 92 1015.3
20260510094623 22 94 0.0 0.0 0.00 0.00 0.00 92 1015.3
20260510094119 22 80 0.0 0.0 0.00 0.00 0.00 92 1015.2
20260510093616 22 73 0.0 0.0 0.00 0.00 0.00 92 1015.0
20260510093113 22 86 0.0 0.0 0.00 0.00 0.00 92 1015.1
20260510092609 22 78 0.0 0.0 0.00 0.00 0.00 92 1015.4
20260510092109 22 78 0.0 0.0 0.00 0.00 0.00 92 1015.2
20260510091606 22 78 0.0 0.0 0.00 0.00 0.00 92 1015.3
20260510091102 22 212 0.0 0.0 0.00 0.00 0.00 92 1015.2
20260510090559 22 99 0.0 0.0 0.00 0.00 0.00 92 1014.9
20260510090055 22 101 0.0 0.0 0.00 0.00 0.00 92 1014.9
20260510085550 22 102 0.0 0.0 0.00 0.00 0.00 92 1014.9
20260510085046 22 87 0.0 0.0 0.00 0.00 0.00 92 1015.1
20260510084543 22 92 0.0 0.0 0.00 0.00 0.00 92 1015.1
20260510084040 22 91 0.0 0.0 0.00 0.00 0.00 92 1014.6
20260510083536 22 67 0.0 0.0 0.00 0.00 0.00 92 1014.5
20260510083032 22 66 0.0 0.0 0.00 0.00 0.00 92 1014.7
20260510082529 22 67 0.0 0.0 0.00 0.00 0.00 92 1014.6
20260510082025 22 79 0.0 0.0 0.00 0.00 0.00 92 1014.7
20260510081520 22 54 0.0 0.0 0.00 0.00 0.00 92 1014.6
20260510081016 22 83 0.0 0.0 0.00 0.00 0.00 91 1014.5
20260510080515 22 99 0.0 0.0 0.00 0.00 0.00 91 1014.7
20260510080012 22 104 0.0 0.0 0.00 0.00 0.00 91 1014.7
20260510075509 22 63 0.0 0.0 0.00 0.00 0.00 91 1014.6
20260510075006 22 121 0.0 0.0 0.00 0.00 0.00 91 1014.5
20260510074504 22 73 0.0 0.0 0.00 0.00 0.00 92 1014.6
20260510073959 22 128 0.0 0.0 0.00 0.00 0.00 92 1014.7
20260510073455 22 93 0.0 0.0 0.00 0.00 0.00 92 1014.8
20260510072952 22 95 0.0 0.0 0.00 0.00 0.00 92 1014.8
20260510072449 22 77 0.0 0.0 0.00 0.00 0.00 92 1014.7
20260510071944 22 93 0.0 0.0 0.00 0.00 0.00 91 1015.0
20260510071441 22 77 0.0 0.0 0.00 0.00 0.00 91 1014.9
20260510070939 22 82 0.0 0.0 0.00 0.00 0.00 91 1015.1
20260510070436 22 75 0.0 0.0 0.00 0.00 0.00 91 1015.2
20260510065931 22 74 0.0 0.0 0.00 0.00 0.00 91 1015.0
20260510065429 22 68 0.0 0.0 0.00 0.00 0.00 91 1014.8
20260510064924 22 74 0.0 0.0 0.00 0.00 0.00 91 1014.8
20260510064422 22 83 0.0 0.0 0.00 0.00 0.00 91 1015.2
20260510063919 22 67 0.0 0.0 0.00 0.00 0.00 91 1015.2
20260510063415 22 69 0.0 0.0 0.00 0.00 0.00 91 1015.3
20260510062913 22 71 0.0 0.0 0.00 0.00 0.00 91 1015.5
20260510062408 22 89 0.0 0.0 0.00 0.00 0.00 91 1015.6
20260510061904 22 86 0.0 0.0 0.00 0.00 0.00 90 1015.7
20260510061400 22 74 0.0 0.0 0.00 0.00 0.00 90 1015.6
20260510060856 22 80 0.0 0.0 0.00 0.00 0.00 90 1015.5
20260510060353 22 68 0.0 0.0 0.00 0.00 0.00 90 1015.6
20260510055849 22 70 0.0 0.0 0.00 0.00 0.00 90 1015.8
20260510055350 22 67 0.0 0.0 0.00 0.00 0.00 90 1015.9
20260510054848 22 70 0.0 0.0 0.00 0.00 0.00 90 1016.0
20260510054344 22 81 0.0 0.0 0.00 0.00 0.00 89 1016.0
20260510053839 22 68 0.0 0.0 0.00 0.00 0.00 89 1016.0
20260510053335 22 64 0.0 0.0 0.00 0.00 0.00 89 1016.3
20260510052831 22 59 0.0 0.0 0.00 0.00 0.00 89 1016.4
20260510052327 22 51 0.0 0.0 0.00 0.00 0.00 89 1016.3
20260510051824 22 68 0.0 0.0 0.00 0.00 0.00 88 1016.5
20260510051321 22 63 0.0 0.0 0.00 0.00 0.00 88 1016.4
20260510050818 22 63 0.0 0.0 0.00 0.00 0.00 87 1016.3
20260510050314 22 63 0.0 0.0 0.00 0.00 0.00 87 1016.6
20260510045811 22 63 0.0 0.0 0.00 0.00 0.00 87 1016.4
20260510045308 22 68 0.0 0.0 0.00 0.00 0.00 87 1016.4
20260510044805 22 60 0.0 0.0 0.00 0.00 0.00 86 1016.7
20260510044302 23 59 0.0 0.0 0.00 0.00 0.00 86 1016.5
20260510043758 23 65 0.0 0.0 0.00 0.00 0.00 86 1016.5
20260510043254 23 70 0.0 0.0 0.00 0.00 0.00 86 1016.7
20260510042752 23 70 0.0 0.0 0.00 0.00 0.00 86 1016.7
20260510042247 23 67 0.0 0.0 0.00 0.00 0.00 85 1016.8
20260510041744 23 61 0.0 0.0 0.00 0.00 0.00 85 1016.7
20260510041241 23 53 0.0 0.0 0.00 0.00 0.00 85 1016.8
20260510040739 23 63 0.0 0.0 0.00 0.00 0.00 85 1016.7
20260510040230 23 75 0.0 0.0 0.00 0.00 0.00 85 1016.7
20260510035725 23 53 0.0 0.0 0.00 0.00 0.00 85 1016.8
20260510035221 23 65 0.0 0.0 0.00 0.00 0.00 85 1016.8
20260510034717 23 63 0.0 0.0 0.00 0.00 0.00 85 1016.6
20260510034215 23 63 0.0 0.0 0.00 0.00 0.00 85 1016.7
20260510033711 23 64 0.0 0.0 0.00 0.00 0.00 85 1016.7
20260510033209 23 64 0.0 0.0 0.00 0.00 0.00 84 1016.8
20260510032705 23 38 0.0 0.0 0.00 0.00 0.00 85 1017.1
20260510032201 22 54 0.0 0.0 0.00 0.00 0.00 85 1016.8
20260510031655 22 58 0.0 0.0 0.00 0.00 0.00 84 1016.6
20260510031152 22 63 0.0 0.0 0.00 0.00 0.00 84 1016.7
20260510030646 22 78 0.0 0.0 0.00 0.00 0.00 84 1016.6
20260510030144 22 60 0.0 0.0 0.00 0.00 0.00 84 1016.8
20260510025641 22 60 0.0 0.0 0.00 0.00 0.00 84 1016.7
20260510025139 23 63 0.0 0.0 0.00 0.00 0.00 84 1016.6
20260510024635 23 66 0.0 0.0 0.00 0.00 0.00 84 1016.3
20260510024132 23 65 0.0 0.0 0.00 0.00 0.00 84 1016.5
20260510023628 23 65 0.0 0.0 0.00 0.00 0.00 83 1016.2
20260510023125 23 69 0.0 0.0 0.00 0.00 0.00 83 1016.2
20260510022625 23 75 0.0 0.0 0.00 0.00 0.00 83 1016.5
20260510022120 23 67 0.0 0.0 0.00 0.00 0.00 83 1016.2
20260510021616 23 68 0.0 0.0 0.00 0.00 0.00 83 1016.2
20260510021114 23 72 0.0 0.0 0.00 0.00 0.00 83 1016.0
20260510020613 23 77 0.0 0.0 0.00 0.00 0.00 83 1016.2
20260510020109 23 65 0.0 0.0 0.00 0.00 0.00 83 1016.0
20260510015606 23 52 0.0 0.0 0.00 0.00 0.00 83 1016.0
20260510015102 23 61 0.0 0.0 0.00 0.00 0.00 83 1016.0
20260510014558 23 63 0.0 0.0 0.00 0.00 0.00 83 1016.1
20260510014055 23 73 0.0 0.0 0.00 0.00 0.00 82 1015.9
20260510013550 23 59 0.0 0.0 0.00 0.00 0.00 82 1016.1
20260510013046 23 56 0.0 0.0 0.00 0.00 0.00 82 1015.9
20260510012545 23 58 0.0 0.0 0.00 0.00 0.00 82 1015.7
20260510012042 24 53 0.0 0.0 0.00 0.00 0.00 82 1015.8
20260510011542 24 84 0.0 0.0 0.00 0.00 0.00 82 1015.7
20260510011038 24 73 0.0 0.0 0.00 0.00 0.00 82 1015.6
20260510010535 24 51 0.0 0.0 0.00 0.00 0.00 81 1015.5
20260510010032 24 59 0.0 0.0 0.00 0.00 0.00 81 1015.8
20260510005527 24 54 0.0 0.0 0.00 0.00 0.00 81 1015.5
20260510005025 24 53 0.0 0.0 0.00 0.00 0.00 81 1015.6
20260510004522 24 64 0.0 0.0 0.00 0.00 0.00 81 1015.2
20260510004021 24 28 0.0 0.0 0.00 0.00 0.00 81 1015.2
20260510003517 24 82 0.0 0.0 0.00 0.00 0.00 81 1015.3
20260510003012 24 58 0.0 0.0 0.00 0.00 0.00 81 1015.1
20260510002508 24 53 0.0 1.6 0.00 0.00 0.00 81 1015.3
20260510002005 24 39 0.0 0.0 0.00 0.00 0.00 81 1015.1
20260510001503 25 71 0.0 8.0 0.00 0.00 0.00 81 1015.1
20260510001001 25 75 0.0 1.6 0.00 0.00 0.00 82 1014.6
20260510000456 25 356 0.0 0.0 0.00 0.00 0.00 82 1014.8
20260509235952 25 37 0.0 0.0 0.00 0.00 0.00 82 1015.1
20260509235449 25 33 0.0 0.0 0.00 0.00 0.00 82 1014.7
20260509234945 25 31 0.0 0.0 0.00 0.00 0.00 81 1014.8
20260509234442 25 342 0.0 0.0 0.00 0.00 0.00 81 1014.7
20260509233940 25 31 0.0 0.0 0.00 0.00 0.00 81 1014.6
20260509233438 25 24 0.0 1.6 0.00 0.00 0.00 81 1014.6
20260509232933 25 27 0.0 0.0 0.00 0.00 0.00 81 1014.7
20260509232432 26 31 0.0 11.3 0.00 0.00 0.00 81 1014.6
20260509231927 27 20 0.0 1.6 0.00 0.00 0.00 79 1014.6
20260509231424 27 32 0.0 0.0 0.00 0.00 0.00 74 1014.2
20260509230922 27 44 0.0 9.7 0.00 0.00 0.00 74 1014.3
20260509230419 27 330 0.0 0.0 0.00 0.00 0.00 74 1014.2
20260509225915 28 6 0.0 0.0 0.00 0.00 0.00 73 1014.3
20260509225411 28 351 0.0 0.0 0.00 0.00 0.00 73 1014.2
20260509224907 28 19 0.0 3.2 0.00 0.00 0.00 73 1014.1
20260509224403 28 344 0.0 0.0 0.00 0.00 0.00 73 1014.0
20260509223901 28 15 0.0 9.7 0.00 0.00 0.00 73 1014.2
20260509223357 28 345 0.0 0.0 0.00 0.00 0.00 72 1014.2
20260509222854 28 344 0.0 0.0 0.00 0.00 0.00 72 1013.8
20260509222349 28 332 0.0 12.9 0.00 0.00 0.00 71 1013.7
20260509221844 28 328 0.0 11.3 0.00 0.00 0.00 71 1013.8
20260509221342 28 326 0.0 0.0 0.00 0.00 0.00 70 1013.7
20260509220837 29 330 1.6 8.0 0.00 0.00 0.00 70 1013.6
20260509220333 29 29 0.0 0.0 0.00 0.00 0.00 69 1013.5
20260509215829 29 5 0.0 0.0 0.00 0.00 0.00 68 1013.5
20260509215326 30 359 0.0 0.0 0.00 0.00 0.00 68 1013.5
20260509214823 30 15 0.0 0.0 0.00 0.00 0.00 67 1013.4
20260509214320 30 9 0.0 8.0 0.00 0.00 0.00 65 1013.5
20260509213817 30 309 0.0 1.6 0.00 0.00 0.00 63 1013.4
20260509213312 31 7 0.0 0.0 0.00 0.00 0.00 63 1013.3
20260509212810 31 303 0.0 0.0 0.00 0.00 0.00 62 1013.2
20260509212308 31 344 0.0 9.7 0.00 0.00 0.00 61 1013.2
20260509211803 32 326 0.0 0.0 0.00 0.00 0.00 60 1013.0
20260509211259 31 278 0.0 0.0 0.00 0.00 0.00 61 1013.3
20260509210756 31 348 0.0 8.0 0.00 0.00 0.00 61 1013.1
20260509210254 32 4 1.6 3.2 0.00 0.00 0.00 61 1013.0
20260509205753 32 308 0.0 0.0 0.00 0.00 0.00 61 1013.1
20260509205248 32 325 0.0 1.6 0.00 0.00 0.00 61 1013.1
20260509204744 32 300 0.0 4.8 0.00 0.00 0.00 61 1013.2
20260509204241 32 306 3.2 9.7 0.00 0.00 0.00 59 1013.2
20260509203737 32 359 0.0 0.0 0.00 0.00 0.00 59 1013.0
20260509203235 32 355 0.0 0.0 0.00 0.00 0.00 60 1013.1
20260509202731 32 227 0.0 0.0 0.00 0.00 0.00 58 1013.2
20260509202227 32 266 0.0 8.0 0.00 0.00 0.00 60 1013.1
20260509201721 32 338 0.0 9.7 0.00 0.00 0.00 60 1013.1
20260509201218 32 295 0.0 0.0 0.00 0.00 0.00 59 1013.0
20260509200714 31 343 0.0 1.6 0.00 0.00 0.00 59 1013.0
20260509200209 31 323 0.0 0.0 0.00 0.00 0.00 60 1013.2
20260509195705 31 335 0.0 0.0 0.00 0.00 0.00 60 1013.0
20260509195201 31 157 0.0 0.0 0.00 0.00 0.00 59 1013.2
20260509194655 31 302 0.0 0.0 0.00 0.00 0.00 58 1013.2
20260509194152 31 277 0.0 0.0 0.00 0.00 0.00 60 1013.2
20260509193648 31 272 0.0 0.0 0.00 0.00 0.00 59 1013.2
20260509193143 31 339 0.0 1.6 0.00 0.00 0.00 59 1013.2
20260509192640 31 315 0.0 0.0 0.00 0.00 0.00 59 1013.3
20260509192136 31 359 0.0 1.6 0.00 0.00 0.00 59 1013.5
20260509191635 31 197 0.0 0.0 0.00 0.00 0.00 60 1013.5
20260509191133 31 316 0.0 0.0 0.00 0.00 0.00 59 1013.4
20260509190629 31 280 0.0 0.0 0.00 0.00 0.00 59 1013.7
20260509190126 31 330 0.0 8.0 0.00 0.00 0.00 59 1013.6
20260509185624 32 294 0.0 0.0 0.00 0.00 0.00 59 1013.7
20260509185120 32 330 0.0 0.0 0.00 0.00 0.00 59 1013.6
20260509184618 31 270 0.0 0.0 0.00 0.00 0.00 60 1013.6
20260509184114 32 300 0.0 1.6 0.00 0.00 0.00 58 1013.6
20260509183610 32 219 0.0 0.0 0.00 0.00 0.00 57 1013.7
20260509183106 32 321 0.0 0.0 0.00 0.00 0.00 58 1013.7
20260509182602 32 333 0.0 0.0 0.00 0.00 0.00 57 1013.8
20260509182059 32 183 0.0 0.0 0.00 0.00 0.00 57 1013.9
20260509181558 33 288 0.0 1.6 0.00 0.00 0.00 57 1013.8
20260509181054 32 334 0.0 0.0 0.00 0.00 0.00 57 1014.2
20260509180550 33 344 0.0 0.0 0.00 0.00 0.00 56 1013.9
20260509180048 33 325 0.0 0.0 0.00 0.00 0.00 57 1014.0
20260509175543 32 281 0.0 0.0 0.00 0.00 0.00 57 1014.1
20260509175040 32 294 0.0 0.0 0.00 0.00 0.00 58 1014.2
20260509174537 32 24 0.0 0.0 0.00 0.00 0.00 58 1014.3
20260509174032 33 322 0.0 0.0 0.00 0.00 0.00 57 1014.3